EW4725 Weather Reports


Display with metric or nautical units.
time (UTC)temp
F
wind
direction
speed
MPH
gust
MPH
rain 1hr
in
rain 24hr
in
rain mn
in
humidity
%
barometer
mb
20260506051116 58 0.0 0.0 0.00 0.38 0.10 80 1016.6
20260506050616 58 0.0 0.0 0.00 0.38 0.10 81 1016.6
20260506050156 58 0.0 0.0 0.00 0.38 0.10 82 1016.5
20260506045116 58 0.0 0.0 0.00 0.38 0.10 80 1016.3
20260506044616 59 0.0 0.0 0.00 0.38 0.10 81 1016.3
20260506044116 59 0.0 0.0 0.00 0.38 0.10 80 1016.2
20260506043636 59 0.0 0.0 0.00 0.38 0.10 78 1016.2
20260506043116 59 0.0 0.0 0.00 0.38 0.10 79 1016.2
20260506042616 60 0.0 0.0 0.00 0.38 0.10 78 1016.2
20260506042116 60 0.0 0.0 0.00 0.38 0.10 78 1016.1
20260506041616 60 0.0 0.0 0.00 0.38 0.10 78 1016.1
20260506041116 60 0.0 0.0 0.00 0.38 0.10 78 1016.0
20260506040616 60 0.0 0.0 0.00 0.38 0.10 77 1015.9
20260506040116 60 0.0 0.0 0.00 0.38 0.10 77 1015.9
20260506035616 60 0.0 0.0 0.00 0.38 0.10 76 1015.8
20260506035116 61 0.0 0.0 0.00 0.38 0.10 76 1015.6
20260506034616 61 0.0 0.0 0.00 0.38 0.10 75 1015.6
20260506034116 61 0.0 1.0 0.00 0.38 0.10 74 1015.5
20260506033616 61 283 2.0 2.0 0.00 0.38 0.10 74 1015.4
20260506033116 61 260 2.0 2.0 0.00 0.38 0.10 73 1015.4
20260506032616 62 260 2.0 2.0 0.00 0.38 0.10 72 1015.4
20260506032116 62 283 2.0 3.0 0.00 0.38 0.10 71 1015.4
20260506031616 62 283 3.0 5.0 0.00 0.38 0.10 70 1015.3
20260506031116 62 305 1.0 1.0 0.00 0.38 0.10 67 1015.3
20260506030616 62 283 2.0 2.0 0.00 0.38 0.10 65 1015.1
20260506030116 62 283 2.0 3.0 0.00 0.38 0.10 64 1015.0
20260506025616 63 283 1.0 2.0 0.00 0.38 0.10 63 1014.8
20260506025116 63 283 2.0 4.0 0.00 0.38 0.10 63 1014.8
20260506024636 63 283 3.0 5.0 0.00 0.38 0.10 62 1014.7
20260506024116 63 283 1.0 2.0 0.00 0.38 0.10 61 1014.7
20260506023616 64 283 3.0 4.0 0.00 0.38 0.10 59 1014.6
20260506023116 64 283 2.0 4.0 0.00 0.38 0.10 58 1014.5
20260506022616 64 260 1.0 3.0 0.00 0.38 0.10 56 1014.5
20260506022116 64 260 1.0 4.0 0.00 0.40 0.10 54 1014.5
20260506021616 64 283 2.0 3.0 0.00 0.41 0.10 53 1014.5
20260506021116 64 283 2.0 3.0 0.00 0.41 0.10 53 1014.4
20260506020656 64 283 3.0 4.0 0.00 0.41 0.10 54 1014.3
20260506020116 65 283 3.0 5.0 0.00 0.41 0.10 54 1014.4
20260506015616 65 283 3.0 5.0 0.00 0.41 0.10 53 1014.4
20260506015136 65 283 2.0 3.0 0.00 0.41 0.10 55 1014.3
20260506014616 65 260 2.0 4.0 0.00 0.41 0.10 53 1014.2
20260506014116 65 260 3.0 4.0 0.00 0.41 0.10 53 1014.1
20260506013616 66 283 3.0 5.0 0.00 0.41 0.10 54 1014.1
20260506013116 66 305 4.0 6.0 0.00 0.41 0.10 53 1014.1
20260506012616 66 260 3.0 5.0 0.00 0.41 0.10 54 1014.1
20260506012136 66 260 5.0 7.0 0.00 0.41 0.10 57 1014.1
20260506011616 65 283 5.0 7.0 0.00 0.41 0.10 57 1014.1
20260506011116 65 283 4.0 6.0 0.00 0.41 0.10 58 1014.1
20260506010616 65 260 7.0 12.0 0.00 0.41 0.10 56 1014.0
20260506010116 65 260 6.0 11.0 0.00 0.41 0.10 57 1014.0
20260506005616 65 260 5.0 8.0 0.00 0.41 0.10 57 1014.0
20260506005116 65 260 7.0 10.0 0.00 0.41 0.10 57 1014.0
20260506004616 65 238 8.0 12.0 0.00 0.41 0.10 57 1014.0
20260506004116 65 283 6.0 9.0 0.00 0.41 0.10 59 1014.0
20260506003616 65 260 3.0 4.0 0.00 0.41 0.10 59 1014.0
20260506003136 65 260 6.0 10.0 0.00 0.41 0.10 58 1014.0
20260506002656 66 260 6.0 9.0 0.00 0.41 0.10 58 1013.9
20260506002115 65 283 5.0 8.0 0.00 0.41 0.10 58 1013.9
20260506001616 65 260 7.0 9.0 0.00 0.41 0.10 58 1014.0
20260506001115 65 283 7.0 12.0 0.00 0.41 0.10 59 1014.0
20260506000656 65 283 6.0 9.0 0.00 0.41 0.10 58 1014.0
20260506000115 66 260 6.0 8.0 0.00 0.41 0.10 56 1014.0
20260505235616 65 260 5.0 7.0 0.00 0.41 0.10 58 1014.0
20260505235116 65 260 6.0 10.0 0.00 0.41 0.10 57 1014.1
20260505234616 65 305 4.0 6.0 0.00 0.41 0.10 57 1014.0
20260505234115 65 305 4.0 6.0 0.00 0.41 0.10 57 1014.1
20260505233636 65 283 7.0 10.0 0.00 0.41 0.10 56 1014.1
20260505233115 65 283 6.0 9.0 0.00 0.41 0.10 55 1014.1
20260505232616 65 305 3.0 7.0 0.00 0.41 0.10 56 1014.1
20260505232115 65 283 6.0 9.0 0.00 0.41 0.10 53 1014.1
20260505231616 66 283 7.0 10.0 0.00 0.41 0.10 52 1014.0
20260505231115 66 283 9.0 13.0 0.00 0.41 0.10 52 1014.0
20260505230616 66 260 5.0 8.0 0.00 0.41 0.10 51 1014.0
20260505230116 66 305 7.0 10.0 0.00 0.41 0.10 49 1014.0
20260505225615 66 305 6.0 10.0 0.00 0.41 0.10 48 1014.1
20260505225116 67 305 8.0 13.0 0.00 0.41 0.10 47 1014.1
20260505224635 67 305 6.0 10.0 0.00 0.41 0.10 50 1014.0
20260505224115 66 260 9.0 12.0 0.00 0.41 0.10 48 1014.1
20260505223615 67 283 7.0 12.0 0.00 0.41 0.10 49 1014.2
20260505223116 67 283 5.0 8.0 0.00 0.41 0.10 49 1014.2
20260505222616 66 283 8.0 12.0 0.00 0.41 0.10 49 1014.2
20260505222136 67 283 7.0 10.0 0.00 0.41 0.10 49 1014.2
20260505221656 68 283 6.0 9.0 0.00 0.41 0.10 49 1014.3
20260505221115 68 305 8.0 11.0 0.00 0.41 0.10 46 1014.4
20260505220635 68 260 6.0 9.0 0.00 0.41 0.10 49 1014.3
20260505220135 68 283 7.0 15.0 0.00 0.41 0.10 48 1014.3
20260505215616 69 283 7.0 12.0 0.00 0.41 0.10 48 1014.4
20260505215115 68 305 5.0 7.0 0.00 0.41 0.10 49 1014.4
20260505214615 68 305 7.0 12.0 0.00 0.41 0.10 49 1014.5
20260505214116 68 283 9.0 13.0 0.00 0.41 0.10 48 1014.5
20260505213615 68 283 7.0 10.0 0.00 0.41 0.10 46 1014.5
20260505213116 68 283 8.0 11.0 0.00 0.41 0.10 48 1014.6
20260505212636 68 238 5.0 6.0 0.00 0.41 0.10 48 1014.6
20260505212115 68 260 9.0 12.0 0.00 0.41 0.10 49 1014.6
20260505211615 68 283 9.0 13.0 0.00 0.41 0.10 50 1014.6
20260505211136 67 305 4.0 6.0 0.00 0.41 0.10 50 1014.6
20260505210615 67 283 8.0 11.0 0.00 0.41 0.10 51 1014.6
20260505210115 67 260 4.0 6.0 0.00 0.41 0.10 50 1014.6
20260505205616 67 260 5.0 8.0 0.00 0.41 0.10 49 1014.6
20260505205115 67 260 3.0 6.0 0.00 0.41 0.10 50 1014.6
20260505204615 67 283 5.0 9.0 0.00 0.41 0.10 51 1014.6
20260505204136 68 260 4.0 6.0 0.00 0.41 0.10 52 1014.6
20260505203636 67 260 4.0 7.0 0.00 0.41 0.10 51 1014.5
20260505203115 68 283 5.0 9.0 0.00 0.41 0.10 50 1014.5
20260505202615 68 260 7.0 11.0 0.00 0.41 0.10 51 1014.5
20260505202115 67 238 5.0 8.0 0.00 0.41 0.10 53 1014.6
20260505201655 67 283 6.0 9.0 0.00 0.41 0.10 52 1014.5
20260505201115 67 260 5.0 11.0 0.00 0.41 0.10 54 1014.6
20260505200615 67 283 6.0 9.0 0.00 0.41 0.10 52 1014.6
20260505200155 67 305 6.0 9.0 0.00 0.41 0.10 52 1014.7
20260505195615 67 260 6.0 10.0 0.00 0.41 0.10 53 1014.7
20260505195116 67 283 6.0 9.0 0.00 0.41 0.10 52 1014.7
20260505194615 67 260 8.0 12.0 0.00 0.41 0.10 51 1014.7
20260505194115 67 283 7.0 11.0 0.00 0.41 0.10 52 1014.8
20260505193615 67 283 8.0 12.0 0.00 0.41 0.10 52 1014.9
20260505193116 66 305 6.0 9.0 0.00 0.41 0.10 55 1014.9
20260505192615 66 283 6.0 9.0 0.00 0.41 0.10 55 1014.9
20260505192115 65 283 5.0 7.0 0.00 0.41 0.10 53 1015.0
20260505191615 66 260 3.0 4.0 0.00 0.41 0.10 54 1015.1
20260505191115 65 283 6.0 9.0 0.00 0.41 0.10 52 1015.1
20260505190615 65 260 6.0 8.0 0.00 0.41 0.10 52 1015.1
20260505190115 65 260 7.0 8.0 0.00 0.41 0.10 52 1015.1
20260505185617 65 283 7.0 10.0 0.00 0.41 0.10 53 1015.1
20260505185117 65 260 7.0 10.0 0.00 0.41 0.10 55 1015.1
20260505184615 66 260 7.0 10.0 0.00 0.41 0.10 55 1015.1
20260505184117 66 260 4.0 7.0 0.00 0.41 0.10 55 1015.1
20260505183617 65 260 6.0 10.0 0.00 0.41 0.10 57 1015.2
20260505183117 65 238 6.0 9.0 0.00 0.41 0.10 57 1015.2
20260505182635 65 260 8.0 11.0 0.00 0.41 0.10 59 1015.2
20260505182137 65 260 5.0 8.0 0.00 0.41 0.10 61 1015.1
20260505181617 65 283 5.0 7.0 0.00 0.41 0.10 59 1015.1
20260505181117 64 283 5.0 7.0 0.00 0.41 0.10 60 1015.0
20260505180617 64 238 8.0 10.0 0.00 0.41 0.10 56 1015.0
20260505180117 64 283 7.0 10.0 0.00 0.41 0.10 61 1015.0
20260505175616 64 283 7.0 10.0 0.00 0.41 0.10 64 1014.9
20260505175117 64 260 5.0 7.0 0.00 0.41 0.10 64 1015.0
20260505174617 64 283 6.0 11.0 0.00 0.41 0.10 65 1014.9
20260505174238 64 260 8.0 14.0 0.00 0.41 0.10 64 1014.9
20260505173617 64 283 7.0 11.0 0.00 0.41 0.10 63 1014.8
20260505173117 65 283 8.0 11.0 0.00 0.41 0.10 63 1014.7
20260505172617 65 283 5.0 8.0 0.00 0.41 0.10 62 1014.7
20260505172117 64 260 5.0 7.0 0.00 0.41 0.10 63 1014.7
20260505171637 64 260 5.0 7.0 0.00 0.41 0.10 64 1014.6
20260505171117 64 260 4.0 13.0 0.00 0.41 0.10 65 1014.6
20260505170617 64 260 4.0 7.0 0.00 0.41 0.10 67 1014.6
20260505170117 63 260 3.0 5.0 0.00 0.41 0.10 71 1014.6
20260505165617 63 260 6.0 10.0 0.00 0.41 0.10 69 1014.5
20260505165135 64 260 6.0 9.0 0.00 0.41 0.10 70 1014.5
20260505164657 63 283 5.0 8.0 0.00 0.41 0.10 69 1014.4
20260505164117 63 283 4.0 7.0 0.00 0.41 0.10 70 1014.4
20260505163617 63 260 6.0 9.0 0.00 0.41 0.10 70 1014.4
20260505163117 63 260 5.0 8.0 0.00 0.41 0.10 71 1014.3
20260505162617 63 260 3.0 4.0 0.00 0.41 0.10 72 1014.2
20260505162117 62 260 4.0 7.0 0.00 0.41 0.10 72 1014.2
20260505161617 62 260 3.0 5.0 0.00 0.41 0.10 73 1014.2
20260505161117 62 260 4.0 7.0 0.00 0.41 0.10 76 1014.1
20260505160617 61 238 6.0 11.0 0.00 0.41 0.10 76 1014.1
20260505160117 61 215 3.0 5.0 0.00 0.41 0.10 81 1014.0
20260505153117 58 260 3.0 6.0 0.00 0.41 0.10 98 1014.1
20260505152617 57 305 3.0 5.0 0.00 0.41 0.10 98 1014.0
20260505152137 57 260 4.0 7.0 0.00 0.41 0.10 98 1014.0
20260505151617 57 283 3.0 6.0 0.00 0.41 0.10 98 1014.0
20260505151117 56 260 3.0 4.0 0.00 0.41 0.10 98 1014.0
20260505150617 56 260 3.0 5.0 0.00 0.41 0.10 98 1014.0
20260505150117 56 283 3.0 4.0 0.00 0.41 0.10 98 1014.0
20260505140617 54 0.0 2.0 0.00 0.41 0.10 98 1013.6
20260505140136 54 283 1.0 3.0 0.00 0.41 0.10 98 1013.7
20260505130116 54 0.0 0.0 0.00 0.41 0.10 98 1013.6
20260505124616 54 283 1.0 1.0 0.00 0.41 0.10 98 1013.5
20260505124116 54 283 1.0 1.0 0.00 0.41 0.10 98 1013.5
20260505123617 54 0.0 0.0 0.00 0.41 0.10 98 1013.5
20260505123117 54 0.0 0.0 0.00 0.41 0.10 98 1013.5
20260505122617 54 0.0 0.0 0.00 0.41 0.10 98 1013.4
20260505122116 54 0.0 0.0 0.00 0.41 0.10 98 1013.4
20260505121616 54 0.0 0.0 0.00 0.41 0.10 98 1013.3
20260505121116 54 0.0 0.0 0.00 0.41 0.10 98 1013.3
20260505120616 54 0.0 0.0 0.00 0.41 0.10 98 1013.3
20260505120116 53 0.0 0.0 0.00 0.41 0.10 98 1013.4
20260505115616 54 0.0 0.0 0.00 0.41 0.10 98 1013.4
20260505115116 54 0.0 0.0 0.00 0.41 0.10 98 1013.4
20260505114616 54 0.0 0.0 0.00 0.41 0.10 98 1013.4
20260505114116 54 0.0 0.0 0.00 0.41 0.10 98 1013.4
20260505113617 54 0.0 0.0 0.02 0.41 0.10 98 1013.4
20260505113116 54 0.0 0.0 0.02 0.41 0.10 98 1013.4
20260505112616 54 0.0 0.0 0.02 0.41 0.10 98 1013.4
20260505112116 54 0.0 1.0 0.02 0.41 0.10 98 1013.5
20260505111617 54 58 1.0 3.0 0.02 0.41 0.10 98 1013.5
20260505111136 54 0.0 1.0 0.02 0.41 0.10 98 1013.5
20260505110617 54 35 1.0 1.0 0.02 0.41 0.10 98 1013.6
20260505110116 54 0.0 0.0 0.02 0.41 0.10 98 1013.5
20260505102137 55 0.0 0.0 0.02 0.39 0.08 98 1013.5
20260505101616 55 0.0 0.0 0.02 0.39 0.08 98 1013.5
20260505101116 55 0.0 0.0 0.02 0.39 0.08 98 1013.5
20260505100616 55 0.0 1.0 0.02 0.39 0.08 98 1013.4
20260505100116 55 0.0 0.0 0.02 0.39 0.08 98 1013.5
20260505095616 56 0.0 0.0 0.02 0.39 0.08 98 1013.5
20260505095136 56 0.0 0.0 0.02 0.39 0.08 98 1013.5
20260505094616 56 0.0 0.0 0.02 0.39 0.08 98 1013.6
20260505094116 56 0.0 0.0 0.01 0.38 0.07 98 1013.7
20260505093616 55 0.0 1.0 0.00 0.37 0.06 98 1013.8
20260505093116 55 148 1.0 2.0 0.00 0.37 0.06 98 1013.8
20260505092616 55 0.0 1.0 0.00 0.37 0.06 98 1013.8
20260505092116 56 148 2.0 3.0 0.00 0.37 0.06 98 1014.0
20260505091616 55 0.0 0.0 0.00 0.37 0.06 98 1014.0
20260505091116 55 170 2.0 3.0 0.00 0.37 0.06 98 1014.1
20260505090616 55 170 1.0 2.0 0.00 0.37 0.06 98 1014.1
20260505090116 55 148 1.0 2.0 0.00 0.37 0.06 98 1014.2
20260505085616 55 148 1.0 1.0 0.00 0.37 0.06 98 1014.1
20260505085116 55 148 2.0 2.0 0.00 0.37 0.06 97 1014.2
20260505084616 55 125 2.0 2.0 0.00 0.37 0.06 97 1014.2
20260505084116 55 148 1.0 2.0 0.01 0.37 0.06 97 1014.2
20260505083616 55 125 1.0 1.0 0.02 0.37 0.06 97 1014.2
20260505083116 55 125 1.0 2.0 0.04 0.37 0.06 97 1014.3
20260505082616 55 125 1.0 2.0 0.04 0.37 0.06 97 1014.3
20260505082136 55 148 3.0 5.0 0.04 0.37 0.06 97 1014.4
20260505081616 55 125 3.0 4.0 0.05 0.37 0.06 97 1014.5
20260505081116 55 125 2.0 3.0 0.05 0.37 0.06 97 1014.5
20260505080616 55 125 2.0 3.0 0.05 0.37 0.06 97 1014.5
20260505080116 56 148 1.0 3.0 0.05 0.37 0.06 97 1014.6
20260505075636 56 148 1.0 1.0 0.06 0.37 0.06 97 1014.5
20260505075116 56 125 2.0 3.0 0.08 0.37 0.06 97 1014.5
20260505074616 55 125 4.0 5.0 0.11 0.37 0.06 97 1014.6
20260505074156 55 125 2.0 4.0 0.11 0.36 0.05 97 1014.7
20260505073630 55 148 3.0 4.0 0.10 0.35 0.04 97 1014.9
20260505073610 55 125 2.0 3.0 0.11 0.33 0.02 97 1014.8
20260505072856 55 148 2.0 5.0 0.11 0.33 0.02 97 1014.8
20260505072336 55 103 2.0 3.0 0.13 0.33 0.02 97 1014.8
20260505071816 55 125 2.0 2.0 0.15 0.33 0.02 97 1014.8
20260505071336 56 125 1.0 2.0 0.15 0.32 0.01 97 1014.8
20260505070836 56 125 3.0 4.0 0.16 0.32 0.01 97 1014.8
20260505070316 55 0.0 1.0 0.20 0.32 0.01 97 1014.8
20260505065836 55 0.0 1.0 0.22 0.31 0.31 97 1014.8
20260505065316 55 0.0 1.0 0.22 0.30 0.30 97 1014.8
20260505064816 55 0.0 1.0 0.21 0.28 0.28 97 1014.8
20260505064317 56 103 1.0 2.0 0.20 0.26 0.26 97 1014.9
20260505063816 56 0.0 1.0 0.20 0.25 0.25 97 1014.8
20260505063316 56 148 2.0 3.0 0.18 0.23 0.23 97 1014.8
20260505062817 56 148 2.0 2.0 0.17 0.22 0.22 97 1014.8
20260505062316 56 148 2.0 3.0 0.16 0.20 0.20 97 1014.8
20260505061816 56 125 2.0 2.0 0.15 0.18 0.18 97 1014.7
20260505061316 56 125 2.0 2.0 0.14 0.17 0.17 97 1014.8
20260505060816 56 125 2.0 2.0 0.13 0.16 0.16 97 1014.8
20260505060316 56 0.0 1.0 0.09 0.12 0.12 97 1014.9
20260505055816 56 125 2.0 2.0 0.06 0.09 0.09 97 1014.9
20260505055437 56 148 1.0 2.0 0.05 0.08 0.08 97 1014.8
20260505054816 56 148 1.0 1.0 0.04 0.07 0.07 97 1014.9
20260505054316 56 0.0 1.0 0.03 0.06 0.06 97 1014.8
20260505053816 56 148 2.0 3.0 0.02 0.05 0.05 97 1014.9
20260505053316 56 125 2.0 3.0 0.02 0.05 0.05 97 1014.9
20260505052816 56 148 1.0 2.0 0.02 0.05 0.05 97 1014.9